Weather History for Doha International Airport, Qatar

Change the Weather History Date:

Wednesday, March 20, 2013

  Actual Average Record
Temperature  
Mean Temperature 75 °F -  
Max Temperature 83 °F 86 °F - ()
Min Temperature 67 °F 67 °F - ()
Cooling Degree Days 10    
Growing Degree Days 25 (Base 50)    
Moisture  
Dew Point 59 °F    
Average Humidity 62    
Maximum Humidity 78    
Minimum Humidity 30    
Precipitation  
Precipitation 0.00 in 0.01 in - ()
Sea Level Pressure  
Sea Level Pressure 29.89 in    
Wind  
Wind Speed 11 mph ()    
Max Wind Speed 20 mph    
Max Gust Speed -    
Visibility 6.4 miles    
Events      
T = Trace of Precipitation, MM = Missing Value Source: Averaged Metar Reports

Daily Weather History Graph

Daily Weather History Graph

Search for Another Location

Airport:

Trip Planner

Search our weather history database for the weather conditions in past years. The results will help you decide how hot, cold, wet, or windy it might be!

Date:

Astronomy

Mar. 20, 2013 Rise Set
Actual Time 5:37 AM AST 5:44 PM AST
Civil Twilight 5:14 AM AST 6:07 PM AST
Nautical Twilight 4:48 AM AST 6:34 PM AST
Astronomical Twilight 4:21 AM AST 7:01 PM AST
Moon 11:31 AM AST (3/20) 12:27 AM AST (3/20)
Length of Visible Light 12h 52m
Length of Day
12h 07m
First Quarter, 56% of the Moon is Illuminated
Mar 20
First Quarter
Mar 27
Full
Apr 3
Last Quarter
Apr 10
New
Apr 18
First Quarter

Hourly Weather History & Observations

Time (AST) Temp. Heat Index Dew Point Humidity Pressure Visibility Wind Dir Wind Speed Gust Speed Precip Events Conditions
12:00 AM 69.8 °F - 57.2 °F 64% 29.89 in - NNW 11.5 mph - N/A   Clear
12:30 AM 69.8 °F - 59.0 °F 68% 29.86 in - NNW 11.5 mph - N/A   Clear
1:00 AM 69.8 °F - 57.2 °F 64% 29.86 in - NW 9.2 mph - N/A   Clear
1:30 AM 69.8 °F - 57.2 °F 64% 29.86 in - NW 8.1 mph - N/A   Clear
2:00 AM 69.8 °F - 57.2 °F 64% 29.86 in - NNW 9.2 mph - N/A   Clear
2:30 AM 69.8 °F - 57.2 °F 64% 29.83 in - NNW 11.5 mph - N/A   Clear
3:00 AM 69 °F - 58 °F 59% 29.85 in 6 mi NNW 11.5 mph - -   Clear
3:00 AM 69.8 °F - 57.2 °F 64% 29.83 in - NNW 11.5 mph - N/A   Clear
3:30 AM 68.0 °F - 57.2 °F 68% 29.83 in - NNW 10.4 mph - N/A   Clear
4:00 AM 69.8 °F - 59.0 °F 68% 29.86 in - NNW 10.4 mph - N/A   Clear
4:30 AM 68.0 °F - 59.0 °F 73% 29.86 in - NNW 10.4 mph - N/A   Clear
5:00 AM 68.0 °F - 59.0 °F 73% 29.86 in - NNW 11.5 mph - N/A   Clear
5:30 AM 68.0 °F - 59.0 °F 73% 29.86 in - NNW 11.5 mph - N/A   Clear
6:00 AM 68.0 °F - 60.8 °F 78% 29.89 in - NNW 11.5 mph - N/A   Clear
6:30 AM 69.8 °F - 60.8 °F 73% 29.89 in - NNW 11.5 mph - N/A   Clear
7:00 AM 69.8 °F - 60.8 °F 73% 29.92 in - NNW 10.4 mph - N/A   Clear
7:30 AM 71.6 °F - 62.6 °F 73% 29.92 in - North 9.2 mph - N/A   Clear
8:00 AM 73.4 °F - 62.6 °F 69% 29.92 in - North 9.2 mph - N/A   Clear
8:30 AM 73.4 °F - 62.6 °F 69% 29.92 in - North 10.4 mph - N/A   Clear
9:00 AM 74 °F - 63 °F 60% 29.95 in 7 mi North 10.4 mph - -   Scattered Clouds
9:00 AM 75.2 °F - 62.6 °F 65% 29.95 in - North 10.4 mph - N/A   Clear
10:00 AM 75.2 °F - 62.6 °F 65% 29.92 in - North 10.4 mph - N/A   Clear
10:30 AM 77.0 °F - 62.6 °F 61% 29.95 in - North 9.2 mph - N/A   Clear
11:00 AM 77.0 °F - 60.8 °F 57% 29.95 in - North 10.4 mph - N/A   Clear
12:00 PM 80.6 °F 80.5 °F 55.4 °F 42% 29.92 in - North 12.7 mph - N/A   Clear
12:30 PM 82.4 °F - 50.0 °F 32% 29.92 in - North 11.5 mph - N/A   Clear
1:00 PM 82.4 °F - 48.2 °F 30% 29.92 in - North 11.5 mph - N/A   Clear
2:00 PM 80.6 °F 80.3 °F 53.6 °F 39% 29.89 in 6.2 mi NNE 17.3 mph - N/A   Scattered Clouds
2:30 PM 78.8 °F - 57.2 °F 47% 29.89 in 6.2 mi NNE 15.0 mph - N/A   Mostly Cloudy
3:00 PM 76 °F - 61 °F 51% 29.90 in 7 mi NNE 15.0 mph - -   Scattered Clouds
3:00 PM 77.0 °F - 60.8 °F 57% 29.89 in 6.2 mi NNE 15.0 mph - N/A   Mostly Cloudy
3:30 PM 75.2 °F - 62.6 °F 65% 29.89 in 6.2 mi North 17.3 mph - N/A   Mostly Cloudy
4:00 PM 75.2 °F - 60.8 °F 61% 29.89 in 6.2 mi NNE 16.1 mph - N/A   Mostly Cloudy
4:30 PM 75.2 °F - 60.8 °F 61% 29.89 in 6.2 mi North 17.3 mph - N/A   Scattered Clouds
5:00 PM 75.2 °F - 55.4 °F 50% 29.89 in - North 17.3 mph - N/A   Clear
5:30 PM 75.2 °F - 59.0 °F 57% 29.89 in - North 15.0 mph - N/A   Clear
6:00 PM 75.2 °F - 59.0 °F 57% 29.89 in - North 19.6 mph - N/A   Clear
6:30 PM 75.2 °F - 59.0 °F 57% 29.92 in - North 18.4 mph - N/A   Clear
7:00 PM 73.4 °F - 62.6 °F 69% 29.92 in - North 19.6 mph - N/A   Clear
8:00 PM 73.4 °F - 59.0 °F 61% 29.92 in - North 19.6 mph - N/A   Clear
8:30 PM 73.4 °F - 60.8 °F 65% 29.92 in - North 15.0 mph - N/A   Clear
9:00 PM 72 °F - 60 °F 58% 29.94 in 7 mi NNW 15.0 mph - -   Scattered Clouds
9:00 PM 71.6 °F - 60.8 °F 69% 29.92 in - NNW 15.0 mph - N/A   Clear
10:00 PM 71.6 °F - 60.8 °F 69% 29.89 in - North 15.0 mph - N/A   Clear
10:30 PM 73.4 °F - 59.0 °F 61% 29.89 in - North 16.1 mph - N/A   Clear
11:00 PM 73.4 °F - 60.8 °F 65% 29.86 in 6.2 mi North 16.1 mph - N/A   Scattered Clouds